Location: 3 Angels Observatory
(30.5437°N, 88.5068°W)
Time: 15:47:09
(UTC-05:00)

Daily predictions for brighter satellites

Satellite Brightness Start Highest point End
(mag) Time Altitude Azimuth Time Altitude Azimuth Time Altitude Azimuth
Intelsat 3F5 C 4.2 20:14:10 10° W 20:17:41 87° S 20:20:58 10° E
Abrixas 2.8 20:16:19 10° SSW 20:19:13 43° SE 20:22:07 10° ENE
Cosmos 407 Rocket 4.2 20:15:21 10° N 20:20:14 36° ENE 20:25:07 10° SE
Cosmos 2184 Rocket 4.0 20:15:21 10° S 20:21:29 77° E 20:27:39 10° N
Cosmos 1452 Rocket 3.5 20:25:10 10° S 20:30:23 71° ESE 20:35:38 10° NNE
CENTAUR R/B 3.4 20:23:38 10° NNW 20:31:40 72° WSW 20:39:56 10° SSE
Lacrosse 5 3.5 20:31:49 10° SE 20:33:53 12° ESE 20:35:58 10° E
SL-08 ROCKET BODY 4.4 20:29:27 10° S 20:35:29 89° W 20:41:27 10° N
Cosmos 1184 Rocket 4.1 20:32:55 10° SE 20:35:31 23° E 20:38:12 10° NE
Cosmos 1190 Rocket 4.0 20:32:48 10° N 20:37:59 71° ENE 20:43:09 10° SSE
Cosmos 2297 4.3 20:36:36 10° SSE 20:41:41 35° ESE 20:46:49 10° NE
Cosmos 1674 Rocket 3.6 20:38:16 10° N 20:42:41 63° E 20:47:01 10° SSE
CZ-2D R/B 3.4 20:39:19 10° S 20:43:07 76° W 20:46:56 10° NNW
H-2A R/B 3.1 20:42:48 10° W 20:46:17 73° S 21:04:37 10° E
CZ-3A R/B 4.0 20:18:52 10° W 20:47:34 56° SSW 20:51:21 18° SE
PSLV R/B 4.1 20:44:35 10° WNW 20:47:50 41° SW 20:50:02 18° SSE
Okean 2 Rocket 3.9 20:47:09 15° SE 20:50:06 30° E 20:53:56 10° NNE
Cosmos 1782 Rocket 3.9 20:50:41 10° SSE 20:54:53 43° E 20:59:07 10° NNE
Cosmos 1606 2.9 20:53:07 10° N 20:56:58 52° E 20:59:21 21° SSE
CZ-4 DEB 2.6 20:55:35 21° SSE 20:57:33 67° ENE 21:00:42 10° N
Meteor 1-10 Rocket 4.4 20:51:52 10° N 20:57:38 77° W 21:03:14 10° S
EO 1 Delta rocket 4.2 20:56:22 10° NNE 21:01:35 49° E 21:05:28 14° SSE
Resurs 01 Rocket 4.4 20:59:18 10° SW 21:01:53 15° W 21:04:27 10° WNW
USA 186 2.9 20:59:16 10° S 21:02:14 42° W 21:05:22 10° NNW
ALOS 3.3 20:58:42 10° S 21:03:09 45° W 21:07:38 10° NNW
Cosmos 1862 3.3 21:00:38 10° S 21:04:41 87° W 21:08:47 10° N
Cosmos 1242 Rocket 4.0 21:01:50 10° NNE 21:04:43 21° ENE 21:04:46 21° E
Sich 1 Rocket 4.3 21:00:35 10° SSW 21:05:04 56° W 21:09:34 10° N
Cosmos 1174 2.9 21:04:01 10° NNW 21:07:02 77° ENE 21:07:52 43° SE
Cosmos 676 Rocket 3.9 21:04:06 10° NNW 21:09:20 82° ENE 21:12:56 21° SSE
COS B Rocket 3.1 21:06:17 10° NNE 21:09:53 50° E 21:10:45 39° SE
Lacrosse 5 rocket 1.7 21:06:34 10° S 21:10:19 36° ESE 21:13:55 10° NE
OAO 3 Rocket 3.6 21:06:13 10° W 21:11:10 66° NNW 21:15:30 13° ENE
GPS 2-05 Rocket1 4.3 21:08:05 10° WNW 21:11:33 36° N 21:13:49 18° ENE
Cosmos 1954 Rocket 4.0 21:06:36 10° N 21:11:48 64° ENE 21:14:41 26° SSE
Cosmos 1408 2.6 21:08:41 10° S 21:12:21 79° W 21:15:59 10° N
SJ-11-01 4.2 21:09:11 20° SSE 21:12:30 78° ENE 21:17:15 10° N
ATLAS 2A CENTAUR R/B 1.4 21:10:12 10° WSW 21:12:54 29° SSW 21:12:54 29° SSW
Nadezhda 3 Rocket 4.0 21:07:09 10° N 21:13:31 72° E 21:18:31 17° SSE
H-2A R/B 4.4 21:10:53 10° SSW 21:14:10 30° W 21:17:29 10° NW
ASTRO E2 4.5 21:11:21 10° SSW 21:13:00 18° S 21:13:00 18° S
Cosmos 1975 Rocket 3.5 21:10:59 10° N 21:15:05 41° E 21:16:09 35° ESE
ATLAS 5 CENTAUR R/B 3.9 21:11:39 10° NW 21:17:08 32° WSW 21:22:49 10° S
Centaur AC-119 2.9 21:15:16 10° WSW 21:16:36 21° SW 21:16:36 21° SW
Meteor 1-27 Rocket 3.7 21:16:59 10° N 21:22:31 80° W 21:26:44 18° S
Cosmos 1378 Rocket 3.4 21:18:44 10° N 21:23:04 90° ENE 21:25:11 30° S
Cosmos 1741 Rocket 4.5 21:25:03 10° N 21:30:00 42° ENE 21:31:03 37° E
Nimbus 7 Rocket 4.4 21:26:32 10° NNE 21:32:31 89° WNW 21:38:33 10° SSW
Cosmos 1110 Rocket 4.4 21:35:43 39° E 21:35:43 39° E 21:40:23 10° NNE
Cosmos 1825 3.8 21:32:31 10° SSW 21:36:00 34° W 21:39:32 10° NNW
Envisat 2.9 21:35:07 36° SSE 21:37:16 89° ENE 21:42:22 10° NNW
Cosmos 2341 Rocket 4.4 21:32:51 10° SSW 21:39:04 62° W 21:45:16 10° N
SEDSat Delta rocket 2.8 21:36:11 10° W 21:40:41 83° N 21:41:22 61° ENE
SL-8 Rocket 3.9 21:38:03 24° S 21:42:04 78° E 21:48:18 10° N
Cosmos 614 Rocket 4.1 21:37:40 10° N 21:42:36 50° ENE 21:43:08 48° E
Meteosat 1 Rocket2 4.2 21:37:29 10° W 21:42:51 59° S 21:45:16 40° SE
Terra 4.2 21:44:32 10° NE 21:44:32 10° NE 21:44:47 10° NE
Cosmos 1833 Rocket 3.6 21:39:40 10° N 21:44:37 31° ENE 21:45:06 30° ENE
ERS-1 Rocket 3.8 21:43:05 21° SSW 21:46:12 47° W 21:51:03 10° NNW
Cosmos 2278 Rocket 4.4 21:42:22 10° WSW 21:47:02 26° WNW 21:51:45 10° N
H-2A R/B 2.1 21:46:49 53° SSW 21:47:41 70° WSW 21:51:55 10° NNW
Cosmos 1939 Rocket 3.8 21:50:56 35° SW 21:51:51 41° W 21:55:35 10° NNW
Atlas Centaur 2 2.9 21:50:31 10° W 21:52:18 21° WSW 21:52:18 21° WSW
Timation 1 Rocket 4.2 21:49:54 22° SSW 21:53:53 78° ESE 21:59:54 10° NNE
Cosmos 2151 Rocket 3.5 21:56:55 78° ENE 21:56:55 78° ENE 22:01:16 10° N
Meteor 1-25 Rocket 4.2 21:58:34 59° ESE 21:59:04 62° E 22:04:49 10° NNE
Cosmos 1140 Rocket 3.7 21:54:28 10° NNW 21:59:34 64° WSW 22:00:43 50° SSW
COSMOS 2487 4.2 21:56:43 10° NW 21:59:50 28° W 22:00:03 28° WSW
Timation 2 Rocket 3.8 21:56:48 10° NNW 22:02:47 82° WSW 22:04:05 57° S
SPOT 5 3.2 22:02:47 54° SSW 22:03:55 72° WSW 22:09:17 10° NNW
CZ-4B R/B 3.2 22:03:36 10° NNE 22:08:19 85° NNE 22:08:19 85° NNE
Cosmos 864 Rocket 4.3 22:09:39 55° S 22:11:08 90° NE 22:17:18 10° N
Cosmos 2082 Rocket 2.1 22:07:04 10° NNW 22:12:45 74° ENE 22:12:49 74° ENE
Lacrosse 5 2.0 22:11:14 10° SW 22:16:17 70° NW 22:21:22 10° NNE
H-2A R/B 3.2 22:20:50 32° NE 22:20:50 32° NE 22:24:30 10° N
Cosmos 2366 rocket 4.3 22:22:11 42° SSW 22:24:17 65° W 22:30:36 10° N
NOAA 11 4.2 22:28:28 78° N 22:28:28 78° N 22:33:36 10° NNW
Meteor 1-18 Rocket 4.2 22:22:52 10° N 22:28:36 82° NNE 22:28:36 82° NNE
SPOT 1/Viking Rocket 3.9 22:35:56 60° WNW 22:35:56 60° WNW 22:40:35 10° NNW
Mugunghwa Rocket 4.5 22:35:32 10° WSW 22:43:03 64° SSW 22:43:03 64° SSW
Lacrosse 5 rocket 4.0 22:46:55 10° W 22:49:36 17° NW 22:52:12 10° N
ARGOS 3.8 22:50:37 49° WNW 22:50:37 49° WNW 22:55:04 10° NNW
Cosmos 2369 Rocket 3.9 22:55:52 24° NNE 22:55:52 24° NNE 22:58:01 10° NNE
USA 229 DEB 3.8 22:47:29 10° NNW 22:54:27 73° WSW 22:54:27 73° WSW
USA 229 3.8 22:47:35 10° NNW 22:54:33 73° WSW 22:54:33 73° WSW
Terra 3.9 23:23:25 25° NNW 23:23:25 25° NNW 23:25:27 10° NNW
ATLAS 2AS CENTAUR R/B 4.4 23:27:18 10° N 23:33:40 25° NE 23:34:23 25° NE
NOSS 3-1 (C) 4.2 23:33:45 10° NNW 23:40:24 68° NNW 23:40:24 68° NNW
USA 234 3.9 23:39:27 10° NNE 23:45:22 50° NNW 23:45:22 50° NNW
